| time (UTC) | temp F | wind direction | speed knots | gust knots | rain 1hr in | rain 24hr in | rain mn in | humidity % | barometer mb |
| 20260506202034 | 62 | 206 | 0.0 | 0.0 | 0.00 | 0.25 | 0.25 | 96 | 1004.9 |
| 20260506201532 | 62 | 208 | 0.0 | 0.9 | 0.00 | 0.25 | 0.25 | 96 | 1004.9 |
| 20260506201028 | 62 | 209 | 0.0 | 0.9 | 0.00 | 0.25 | 0.25 | 96 | 1004.9 |
| 20260506200524 | 62 | 208 | 0.0 | 0.0 | 0.00 | 0.25 | 0.25 | 96 | 1004.6 |
| 20260506200021 | 62 | 210 | 0.0 | 0.0 | 0.00 | 0.25 | 0.25 | 96 | 1005.0 |
| 20260506195518 | 62 | 217 | 0.0 | 0.0 | 0.00 | 0.25 | 0.25 | 96 | 1004.9 |
| 20260506195014 | 62 | 211 | 0.0 | 0.0 | 0.00 | 0.25 | 0.25 | 96 | 1004.7 |
| 20260506194512 | 62 | 217 | 0.0 | 0.0 | 0.00 | 0.25 | 0.25 | 96 | 1005.3 |
| 20260506194008 | 62 | 207 | 0.0 | 0.0 | 0.00 | 0.25 | 0.25 | 96 | 1005.0 |
| 20260506193506 | 62 | 214 | 0.0 | 0.0 | 0.00 | 0.25 | 0.25 | 96 | 1005.2 |
| 20260506193003 | 62 | 211 | 0.0 | 0.0 | 0.00 | 0.25 | 0.25 | 96 | 1005.1 |
| 20260506192459 | 61 | 223 | 0.0 | 0.0 | 0.00 | 0.25 | 0.25 | 95 | 1005.2 |
| 20260506191955 | 61 | 211 | 0.0 | 0.0 | 0.00 | 0.25 | 0.25 | 95 | 1005.3 |
| 20260506191453 | 61 | 213 | 0.0 | 0.0 | 0.05 | 0.25 | 0.25 | 95 | 1005.4 |
| 20260506190949 | 61 | 215 | 0.0 | 0.0 | 0.05 | 0.25 | 0.25 | 95 | 1005.4 |
| 20260506190446 | 61 | 214 | 0.0 | 0.0 | 0.00 | 0.24 | 0.24 | 95 | 1005.5 |
| 20260506185942 | 61 | 214 | 0.0 | 0.9 | 0.00 | 0.24 | 0.24 | 95 | 1005.3 |
| 20260506185439 | 61 | 215 | 0.0 | 0.0 | 0.07 | 0.24 | 0.24 | 95 | 1005.4 |
| 20260506184936 | 61 | 219 | 0.0 | 0.0 | 0.07 | 0.24 | 0.24 | 95 | 1005.4 |
| 20260506184433 | 61 | 218 | 0.0 | 0.0 | 0.05 | 0.23 | 0.23 | 95 | 1005.5 |
| 20260506183931 | 61 | 222 | 0.0 | 0.0 | 0.05 | 0.23 | 0.23 | 95 | 1005.5 |
| 20260506183426 | 61 | 216 | 0.0 | 0.0 | 0.00 | 0.22 | 0.22 | 95 | 1005.5 |
| 20260506182923 | 61 | 214 | 0.0 | 0.0 | 0.07 | 0.22 | 0.22 | 95 | 1005.5 |
| 20260506182421 | 61 | 215 | 0.0 | 0.0 | 0.07 | 0.22 | 0.22 | 95 | 1005.5 |
| 20260506181918 | 61 | 217 | 0.0 | 0.0 | 0.00 | 0.21 | 0.21 | 95 | 1005.7 |
| 20260506181416 | 61 | 211 | 0.0 | 0.0 | 0.00 | 0.21 | 0.21 | 95 | 1005.5 |
| 20260506180912 | 61 | 221 | 0.0 | 0.9 | 0.05 | 0.21 | 0.21 | 95 | 1005.7 |
| 20260506180408 | 61 | 215 | 0.0 | 0.9 | 0.05 | 0.21 | 0.21 | 95 | 1005.9 |
| 20260506175906 | 61 | 212 | 0.0 | 0.0 | 0.00 | 0.20 | 0.20 | 95 | 1005.6 |
| 20260506175402 | 61 | 213 | 0.0 | 0.0 | 0.00 | 0.20 | 0.20 | 95 | 1005.6 |
| 20260506174859 | 61 | 213 | 0.0 | 0.9 | 0.07 | 0.20 | 0.20 | 95 | 1005.8 |
| 20260506174357 | 61 | 204 | 0.0 | 0.0 | 0.07 | 0.20 | 0.20 | 95 | 1005.7 |
| 20260506173854 | 61 | 212 | 0.0 | 0.0 | 0.00 | 0.19 | 0.19 | 95 | 1005.8 |
| 20260506173350 | 61 | 210 | 0.0 | 0.0 | 0.00 | 0.19 | 0.19 | 95 | 1005.9 |
| 20260506172847 | 61 | 210 | 0.0 | 0.0 | 0.07 | 0.19 | 0.19 | 95 | 1005.9 |
| 20260506172344 | 61 | 214 | 0.0 | 0.0 | 0.07 | 0.19 | 0.19 | 95 | 1005.8 |
| 20260506171842 | 60 | 220 | 0.0 | 0.0 | 0.00 | 0.18 | 0.18 | 95 | 1005.7 |
| 20260506171338 | 60 | 215 | 0.0 | 0.0 | 0.00 | 0.18 | 0.18 | 95 | 1005.8 |
| 20260506170836 | 60 | 213 | 0.0 | 0.0 | 0.05 | 0.18 | 0.18 | 95 | 1005.6 |
| 20260506170331 | 60 | 201 | 0.9 | 0.9 | 0.05 | 0.18 | 0.18 | 95 | 1005.8 |
| 20260506165826 | 60 | 206 | 0.0 | 0.0 | 0.00 | 0.17 | 0.17 | 95 | 1006.0 |
| 20260506165323 | 59 | 210 | 0.0 | 0.0 | 0.00 | 0.17 | 0.17 | 95 | 1005.9 |
| 20260506164819 | 59 | 211 | 0.0 | 0.0 | 0.07 | 0.17 | 0.17 | 95 | 1006.1 |
| 20260506164316 | 59 | 211 | 0.0 | 0.0 | 0.00 | 0.16 | 0.16 | 94 | 1006.3 |
| 20260506163813 | 59 | 211 | 0.0 | 0.0 | 0.05 | 0.16 | 0.16 | 94 | 1006.2 |
| 20260506163308 | 58 | 211 | 0.0 | 0.0 | 0.12 | 0.16 | 0.16 | 94 | 1006.5 |
| 20260506162804 | 58 | 213 | 0.0 | 0.0 | 0.07 | 0.15 | 0.15 | 94 | 1006.4 |
| 20260506162306 | 58 | 213 | 0.0 | 0.0 | 0.00 | 0.14 | 0.14 | 94 | 1006.8 |
| 20260506161759 | 58 | 213 | 0.0 | 0.0 | 0.05 | 0.14 | 0.14 | 94 | 1006.9 |
| 20260506161256 | 58 | 213 | 0.0 | 0.0 | 0.07 | 0.13 | 0.13 | 94 | 1006.6 |
| 20260506160754 | 57 | 208 | 0.0 | 0.0 | 0.07 | 0.13 | 0.13 | 94 | 1006.6 |
| 20260506160250 | 57 | 204 | 0.0 | 0.0 | 0.00 | 0.12 | 0.12 | 94 | 1006.7 |
| 20260506155749 | 57 | 214 | 0.0 | 0.0 | 0.05 | 0.12 | 0.12 | 93 | 1007.0 |
| 20260506155245 | 57 | 214 | 0.0 | 0.0 | 0.00 | 0.11 | 0.11 | 93 | 1007.0 |
| 20260506153358 | 57 | 220 | 0.0 | 0.0 | 0.05 | 0.10 | 0.10 | 93 | 1007.3 |
| 20260506152855 | 57 | 220 | 0.0 | 0.0 | 0.05 | 0.10 | 0.10 | 93 | 1007.4 |
| 20260506152352 | 57 | 214 | 0.0 | 0.0 | 0.07 | 0.09 | 0.09 | 93 | 1007.4 |
| 20260506151851 | 57 | 214 | 0.0 | 0.0 | 0.07 | 0.09 | 0.09 | 93 | 1007.5 |
| 20260506151347 | 57 | 215 | 0.0 | 0.0 | 0.05 | 0.08 | 0.08 | 92 | 1007.5 |
| 20260506150845 | 57 | 213 | 0.0 | 0.0 | 0.07 | 0.07 | 0.07 | 92 | 1007.4 |
| 20260506150341 | 57 | 217 | 0.0 | 0.0 | 0.07 | 0.07 | 0.07 | 92 | 1007.5 |
| 20260506145838 | 57 | 215 | 0.0 | 0.0 | 0.07 | 0.06 | 0.06 | 92 | 1007.6 |
| 20260506145334 | 57 | 219 | 0.0 | 0.0 | 0.07 | 0.06 | 0.06 | 92 | 1007.7 |
| 20260506144832 | 57 | 215 | 0.0 | 0.0 | 0.05 | 0.05 | 0.05 | 92 | 1007.8 |
| 20260506144328 | 57 | 215 | 0.0 | 0.0 | 0.12 | 0.05 | 0.05 | 92 | 1008.0 |
| 20260506143827 | 57 | 215 | 0.0 | 0.0 | 0.12 | 0.04 | 0.04 | 92 | 1007.7 |
| 20260506143323 | 57 | 213 | 0.0 | 0.0 | 0.05 | 0.03 | 0.03 | 92 | 1008.0 |
| 20260506142822 | 57 | 218 | 0.0 | 0.0 | 0.07 | 0.02 | 0.02 | 92 | 1008.2 |
| 20260506142319 | 57 | 212 | 0.0 | 0.0 | 0.07 | 0.02 | 0.02 | 91 | 1008.2 |
| 20260506141818 | 57 | 213 | 0.0 | 0.0 | 0.05 | 0.01 | 0.01 | 91 | 1008.1 |
| 20260506141315 | 57 | 209 | 0.0 | 0.0 | 0.00 | 0.00 | 0.00 | 91 | 1008.1 |
| 20260506140813 | 57 | 211 | 0.0 | 0.0 | 0.00 | 0.00 | 0.00 | 91 | 1008.2 |
| 20260506140309 | 57 | 210 | 0.0 | 0.0 | 0.00 | 0.00 | 0.00 | 90 | 1008.0 |
| 20260506135807 | 57 | 210 | 0.0 | 0.0 | 0.00 | 0.00 | 0.00 | 90 | 1008.0 |
| 20260506135305 | 57 | 210 | 0.0 | 0.0 | 0.00 | 0.00 | 0.00 | 90 | 1008.2 |
| 20260506134800 | 57 | 210 | 0.0 | 0.0 | 0.00 | 0.00 | 0.00 | 90 | 1008.0 |
| 20260506134256 | 57 | 210 | 0.0 | 0.0 | 0.00 | 0.00 | 0.00 | 89 | 1008.0 |
| 20260506133753 | 57 | 210 | 0.0 | 0.0 | 0.00 | 0.00 | 0.00 | 89 | 1007.8 |
| 20260506133250 | 57 | 210 | 0.0 | 0.0 | 0.00 | 0.00 | 0.00 | 89 | 1008.0 |
| 20260506132746 | 57 | 210 | 0.0 | 0.0 | 0.00 | 0.00 | 0.00 | 89 | 1007.7 |
| 20260506132244 | 57 | 211 | 0.0 | 0.0 | 0.00 | 0.00 | 0.00 | 89 | 1007.7 |
| 20260506131742 | 57 | 227 | 0.0 | 0.0 | 0.00 | 0.00 | 0.00 | 88 | 1007.8 |
| 20260506131237 | 57 | 216 | 0.0 | 0.0 | 0.00 | 0.00 | 0.00 | 88 | 1007.6 |
| 20260506130734 | 56 | 207 | 0.0 | 0.0 | 0.00 | 0.00 | 0.00 | 88 | 1007.7 |
| 20260506130231 | 56 | 221 | 0.0 | 0.0 | 0.00 | 0.00 | 0.00 | 88 | 1008.0 |
| 20260506125730 | 56 | 213 | 0.0 | 0.0 | 0.00 | 0.00 | 0.00 | 88 | 1008.0 |
| 20260506125227 | 56 | 227 | 0.0 | 0.9 | 0.00 | 0.00 | 0.00 | 88 | 1007.8 |
| 20260506124725 | 56 | 224 | 0.0 | 0.0 | 0.00 | 0.00 | 0.00 | 88 | 1007.8 |
| 20260506124223 | 56 | 224 | 0.0 | 0.0 | 0.00 | 0.00 | 0.00 | 88 | 1008.0 |
| 20260506123720 | 56 | 224 | 0.0 | 0.0 | 0.00 | 0.00 | 0.00 | 88 | 1007.8 |
| 20260506123219 | 56 | 224 | 0.0 | 0.0 | 0.00 | 0.00 | 0.00 | 88 | 1008.1 |
| 20260506122715 | 56 | 224 | 0.0 | 0.0 | 0.00 | 0.00 | 0.00 | 88 | 1008.4 |
| 20260506122212 | 56 | 224 | 0.0 | 0.0 | 0.00 | 0.00 | 0.00 | 87 | 1008.7 |
| 20260506121710 | 56 | 224 | 0.0 | 0.0 | 0.00 | 0.00 | 0.00 | 87 | 1008.8 |
| 20260506121206 | 56 | 224 | 0.0 | 0.0 | 0.00 | 0.00 | 0.00 | 87 | 1008.7 |
| 20260506120704 | 56 | 227 | 0.0 | 0.0 | 0.00 | 0.00 | 0.00 | 87 | 1008.6 |
| 20260506120202 | 56 | 219 | 0.0 | 0.0 | 0.00 | 0.00 | 0.00 | 88 | 1008.8 |
| 20260506115700 | 56 | 221 | 0.0 | 0.0 | 0.00 | 0.00 | 0.00 | 88 | 1008.5 |
| 20260506115158 | 56 | 223 | 0.0 | 0.0 | 0.00 | 0.00 | 0.00 | 88 | 1008.8 |
| 20260506114654 | 56 | 223 | 0.0 | 0.0 | 0.00 | 0.00 | 0.00 | 88 | 1008.7 |
| 20260506114152 | 56 | 223 | 0.0 | 0.0 | 0.00 | 0.00 | 0.00 | 88 | 1008.5 |
| 20260506113651 | 56 | 223 | 0.0 | 0.0 | 0.00 | 0.00 | 0.00 | 88 | 1008.1 |
| 20260506113148 | 56 | 223 | 0.0 | 0.0 | 0.00 | 0.00 | 0.00 | 88 | 1008.0 |
| 20260506112643 | 56 | 219 | 0.0 | 0.0 | 0.00 | 0.00 | 0.00 | 88 | 1008.0 |
| 20260506112142 | 56 | 218 | 0.0 | 0.0 | 0.00 | 0.00 | 0.00 | 88 | 1008.1 |
| 20260506111639 | 56 | 218 | 0.0 | 0.0 | 0.00 | 0.00 | 0.00 | 88 | 1008.1 |
| 20260506111137 | 56 | 218 | 0.0 | 0.0 | 0.00 | 0.00 | 0.00 | 88 | 1008.5 |
| 20260506110634 | 55 | 218 | 0.0 | 0.0 | 0.00 | 0.00 | 0.00 | 88 | 1007.3 |
| 20260506110131 | 55 | 232 | 0.0 | 0.0 | 0.00 | 0.00 | 0.00 | 88 | 1007.9 |
| 20260506105627 | 55 | 231 | 0.0 | 0.0 | 0.00 | 0.00 | 0.00 | 88 | 1008.1 |
| 20260506105125 | 55 | 231 | 0.0 | 0.0 | 0.00 | 0.00 | 0.00 | 88 | 1008.2 |
| 20260506104623 | 55 | 231 | 0.0 | 0.0 | 0.00 | 0.00 | 0.00 | 88 | 1008.2 |
| 20260506104120 | 55 | 231 | 0.0 | 0.0 | 0.00 | 0.00 | 0.00 | 88 | 1008.1 |
| 20260506103617 | 55 | 231 | 0.0 | 0.0 | 0.00 | 0.00 | 0.00 | 88 | 1008.0 |
| 20260506103114 | 55 | 231 | 0.0 | 0.0 | 0.00 | 0.00 | 0.00 | 88 | 1008.1 |
| 20260506102612 | 55 | 231 | 0.0 | 0.0 | 0.00 | 0.00 | 0.00 | 88 | 1007.5 |
| 20260506102109 | 55 | 231 | 0.0 | 0.0 | 0.00 | 0.00 | 0.00 | 87 | 1007.7 |
| 20260506101606 | 55 | 231 | 0.0 | 0.0 | 0.00 | 0.00 | 0.00 | 87 | 1007.7 |
| 20260506101103 | 55 | 231 | 0.0 | 0.0 | 0.00 | 0.00 | 0.00 | 87 | 1007.8 |
| 20260506100601 | 55 | 232 | 0.0 | 0.9 | 0.00 | 0.00 | 0.00 | 87 | 1008.1 |
| 20260506100059 | 55 | 231 | 0.0 | 0.0 | 0.00 | 0.00 | 0.00 | 86 | 1007.5 |
| 20260506095557 | 55 | 231 | 0.0 | 0.0 | 0.00 | 0.00 | 0.00 | 86 | 1007.4 |
| 20260506095053 | 55 | 231 | 0.0 | 0.0 | 0.00 | 0.00 | 0.00 | 86 | 1007.7 |
| 20260506094551 | 55 | 231 | 0.0 | 0.0 | 0.00 | 0.00 | 0.00 | 86 | 1007.5 |
| 20260506094049 | 55 | 231 | 0.0 | 0.0 | 0.00 | 0.00 | 0.00 | 85 | 1007.4 |
| 20260506093547 | 55 | 231 | 0.0 | 0.0 | 0.00 | 0.00 | 0.00 | 84 | 1007.5 |
| 20260506093044 | 55 | 231 | 0.0 | 0.0 | 0.00 | 0.00 | 0.00 | 84 | 1007.6 |
| 20260506092542 | 55 | 230 | 0.0 | 0.9 | 0.00 | 0.00 | 0.00 | 85 | 1007.7 |
| 20260506092038 | 55 | 228 | 0.0 | 0.0 | 0.00 | 0.00 | 0.00 | 84 | 1007.6 |
| 20260506091537 | 55 | 228 | 0.0 | 0.0 | 0.00 | 0.00 | 0.00 | 84 | 1007.7 |
| 20260506091034 | 55 | 228 | 0.0 | 0.0 | 0.00 | 0.00 | 0.00 | 83 | 1007.6 |
| 20260506090532 | 55 | 227 | 0.0 | 0.0 | 0.00 | 0.00 | 0.00 | 84 | 1007.9 |
| 20260506090028 | 55 | 225 | 0.0 | 0.0 | 0.00 | 0.00 | 0.00 | 83 | 1007.7 |
| 20260506085525 | 55 | 225 | 0.0 | 0.0 | 0.00 | 0.00 | 0.00 | 83 | 1007.6 |
| 20260506085021 | 56 | 225 | 0.0 | 0.0 | 0.00 | 0.00 | 0.00 | 83 | 1007.8 |
| 20260506084518 | 56 | 225 | 0.0 | 0.0 | 0.00 | 0.00 | 0.00 | 82 | 1007.8 |
| 20260506084014 | 56 | 225 | 0.0 | 0.0 | 0.00 | 0.00 | 0.00 | 82 | 1007.8 |
| 20260506083512 | 56 | 224 | 0.0 | 0.0 | 0.00 | 0.00 | 0.00 | 82 | 1007.8 |
| 20260506083009 | 56 | 225 | 0.0 | 0.0 | 0.00 | 0.00 | 0.00 | 81 | 1008.0 |
| 20260506082506 | 56 | 239 | 0.0 | 0.9 | 0.00 | 0.00 | 0.00 | 81 | 1008.2 |
| 20260506082001 | 56 | 231 | 0.0 | 0.0 | 0.00 | 0.00 | 0.00 | 81 | 1008.1 |
| 20260506081500 | 56 | 221 | 0.0 | 0.0 | 0.00 | 0.00 | 0.00 | 81 | 1008.1 |
| 20260506080957 | 56 | 224 | 0.0 | 0.0 | 0.00 | 0.00 | 0.00 | 81 | 1008.2 |
| 20260506080454 | 56 | 228 | 0.0 | 0.0 | 0.00 | 0.00 | 0.00 | 81 | 1008.3 |
| 20260506073437 | 57 | 226 | 0.0 | 0.0 | 0.00 | 0.00 | 0.00 | 84 | 1008.6 |
| 20260506072935 | 57 | 226 | 0.0 | 0.0 | 0.00 | 0.00 | 0.00 | 83 | 1008.8 |
| 20260506072432 | 57 | 226 | 0.0 | 0.0 | 0.00 | 0.00 | 0.00 | 82 | 1008.5 |
| 20260506071930 | 57 | 226 | 0.0 | 0.0 | 0.00 | 0.00 | 0.00 | 81 | 1008.8 |
| 20260506071427 | 57 | 226 | 0.0 | 0.0 | 0.00 | 0.00 | 0.00 | 81 | 1008.8 |
| 20260506070924 | 57 | 226 | 0.0 | 0.0 | 0.00 | 0.00 | 0.00 | 80 | 1008.8 |
| 20260506070421 | 57 | 226 | 0.0 | 0.0 | 0.00 | 0.00 | 0.00 | 80 | 1008.6 |
| 20260506062358 | 58 | 208 | 0.9 | 0.9 | 0.00 | 0.00 | 0.00 | 80 | 1009.0 |
| 20260506061854 | 58 | 204 | 0.9 | 0.9 | 0.00 | 0.00 | 0.00 | 81 | 1009.2 |
| 20260506061351 | 58 | 226 | 0.0 | 0.0 | 0.00 | 0.00 | 0.00 | 81 | 1009.2 |
| 20260506060849 | 58 | 192 | 0.9 | 0.9 | 0.00 | 0.00 | 0.00 | 81 | 1009.0 |
| 20260506060347 | 57 | 178 | 0.9 | 0.9 | 0.00 | 0.00 | 0.00 | 82 | 1009.2 |
| 20260506051319 | 59 | 223 | 0.0 | 0.0 | 0.00 | 0.00 | 0.00 | 83 | 1009.2 |
| 20260506050816 | 59 | 223 | 0.0 | 0.0 | 0.00 | 0.00 | 0.00 | 84 | 1009.3 |
| 20260506050314 | 59 | 222 | 0.0 | 0.0 | 0.00 | 0.00 | 0.00 | 83 | 1009.1 |
| 20260506044804 | 60 | 223 | 0.0 | 0.0 | 0.00 | 0.00 | 0.00 | 81 | 1009.4 |
| 20260506044302 | 60 | 222 | 0.0 | 0.0 | 0.00 | 0.00 | 0.00 | 80 | 1009.2 |
| 20260506043759 | 60 | 222 | 0.0 | 0.0 | 0.00 | 0.00 | 0.00 | 80 | 1009.2 |
| 20260506043256 | 60 | 222 | 0.0 | 0.0 | 0.00 | 0.00 | 0.00 | 79 | 1009.2 |
| 20260506042755 | 60 | 230 | 0.0 | 0.0 | 0.00 | 0.00 | 0.00 | 79 | 1008.9 |
| 20260506042253 | 60 | 228 | 0.0 | 0.0 | 0.00 | 0.00 | 0.00 | 79 | 1009.3 |
| 20260506041751 | 60 | 224 | 0.0 | 0.0 | 0.00 | 0.00 | 0.00 | 80 | 1009.4 |
| 20260506041248 | 60 | 230 | 0.0 | 0.9 | 0.00 | 0.00 | 0.00 | 80 | 1009.3 |
| 20260506040745 | 60 | 221 | 0.0 | 0.0 | 0.00 | 0.00 | 0.00 | 80 | 1009.0 |
| 20260506040242 | 60 | 221 | 0.0 | 0.0 | 0.00 | 0.00 | 0.00 | 79 | 1009.1 |
| 20260506035739 | 61 | 225 | 0.0 | 0.0 | 0.00 | 0.02 | 0.02 | 79 | 1008.7 |
| 20260506035236 | 60 | 214 | 0.0 | 0.0 | 0.00 | 0.02 | 0.02 | 80 | 1009.0 |
| 20260506034733 | 61 | 219 | 0.0 | 0.9 | 0.00 | 0.02 | 0.02 | 81 | 1008.8 |
| 20260506034230 | 61 | 42 | 0.0 | 0.9 | 0.00 | 0.02 | 0.02 | 81 | 1008.7 |
| 20260506033727 | 61 | 231 | 0.9 | 0.9 | 0.00 | 0.02 | 0.02 | 84 | 1008.8 |
| 20260506033224 | 62 | 254 | 1.7 | 2.6 | 0.00 | 0.02 | 0.02 | 87 | 1008.6 |
| 20260506032721 | 62 | 227 | 0.0 | 0.0 | 0.00 | 0.02 | 0.02 | 89 | 1008.5 |
| 20260506032218 | 62 | 251 | 0.9 | 1.7 | 0.07 | 0.02 | 0.02 | 90 | 1008.4 |
| 20260506031714 | 62 | 232 | 0.9 | 0.9 | 0.07 | 0.02 | 0.02 | 90 | 1008.4 |
| 20260506031212 | 62 | 220 | 0.0 | 0.0 | 0.00 | 0.01 | 0.01 | 91 | 1008.5 |
| 20260506030710 | 62 | 224 | 0.0 | 0.0 | 0.00 | 0.01 | 0.01 | 91 | 1008.3 |
| 20260506030207 | 62 | 245 | 0.0 | 0.0 | 0.00 | 0.01 | 0.01 | 90 | 1008.4 |
| 20260506025704 | 62 | 214 | 0.0 | 0.0 | 0.00 | 0.01 | 0.01 | 90 | 1008.5 |
| 20260506025200 | 63 | 206 | 0.0 | 0.0 | 0.00 | 0.01 | 0.01 | 90 | 1008.7 |
| 20260506024657 | 63 | 220 | 0.9 | 0.9 | 0.00 | 0.01 | 0.01 | 90 | 1008.9 |
| 20260506024154 | 63 | 225 | 0.0 | 0.0 | 0.00 | 0.01 | 0.01 | 89 | 1008.4 |
| 20260506023650 | 63 | 224 | 0.0 | 0.0 | 0.00 | 0.01 | 0.01 | 89 | 1008.3 |
| 20260506023147 | 63 | 224 | 0.0 | 0.0 | 0.00 | 0.01 | 0.01 | 88 | 1008.2 |
| 20260506022644 | 63 | 223 | 0.0 | 0.0 | 0.00 | 0.01 | 0.01 | 88 | 1008.1 |
| 20260506022142 | 63 | 223 | 0.0 | 0.0 | 0.00 | 0.01 | 0.01 | 88 | 1008.0 |
| 20260506021640 | 64 | 223 | 0.0 | 0.0 | 0.00 | 0.01 | 0.01 | 87 | 1008.2 |
| 20260506021136 | 64 | 220 | 0.0 | 0.0 | 0.00 | 0.01 | 0.01 | 87 | 1007.8 |
| 20260506020634 | 64 | 220 | 0.0 | 0.0 | 0.00 | 0.01 | 0.01 | 86 | 1007.8 |
| 20260506020131 | 64 | 214 | 0.0 | 0.0 | 0.00 | 0.01 | 0.01 | 85 | 1007.9 |
| 20260506015629 | 64 | 213 | 0.0 | 0.0 | 0.00 | 0.01 | 0.01 | 85 | 1007.8 |
| 20260506015125 | 64 | 213 | 0.0 | 0.0 | 0.00 | 0.01 | 0.01 | 84 | 1008.1 |
| 20260506014623 | 64 | 213 | 0.0 | 0.0 | 0.00 | 0.01 | 0.01 | 84 | 1007.9 |
| 20260506014118 | 64 | 213 | 0.0 | 0.0 | 0.00 | 0.01 | 0.01 | 84 | 1007.8 |
| 20260506013617 | 64 | 213 | 0.0 | 0.0 | 0.00 | 0.01 | 0.01 | 84 | 1008.0 |
| 20260506013113 | 64 | 213 | 0.0 | 0.0 | 0.00 | 0.01 | 0.01 | 84 | 1007.5 |
| 20260506012610 | 64 | 213 | 0.0 | 0.0 | 0.00 | 0.01 | 0.01 | 83 | 1007.7 |
| 20260506012106 | 64 | 213 | 0.0 | 0.0 | 0.00 | 0.01 | 0.01 | 83 | 1007.7 |
| 20260506011604 | 64 | 214 | 0.0 | 0.0 | 0.00 | 0.01 | 0.01 | 82 | 1007.6 |
| 20260506011059 | 64 | 213 | 0.0 | 0.0 | 0.00 | 0.01 | 0.01 | 82 | 1007.4 |
| 20260506010554 | 65 | 213 | 0.0 | 0.0 | 0.00 | 0.01 | 0.01 | 82 | 1007.3 |
| 20260506010050 | 65 | 213 | 0.0 | 0.0 | 0.00 | 0.01 | 0.01 | 82 | 1007.6 |
| 20260506005547 | 65 | 212 | 0.0 | 0.0 | 0.00 | 0.01 | 0.01 | 83 | 1007.6 |
| 20260506005043 | 65 | 227 | 0.0 | 0.0 | 0.00 | 0.01 | 0.01 | 82 | 1007.4 |
| 20260506004541 | 65 | 227 | 0.0 | 0.0 | 0.00 | 0.01 | 0.01 | 82 | 1007.5 |
| 20260506004037 | 65 | 236 | 0.0 | 0.9 | 0.00 | 0.01 | 0.01 | 83 | 1007.4 |
| 20260506003534 | 65 | 219 | 0.0 | 0.0 | 0.00 | 0.01 | 0.01 | 83 | 1007.2 |
| 20260506003030 | 65 | 227 | 0.0 | 0.0 | 0.00 | 0.01 | 0.01 | 83 | 1007.1 |
| 20260506002526 | 65 | 226 | 0.0 | 0.0 | 0.00 | 0.01 | 0.01 | 83 | 1007.1 |
| 20260506002022 | 65 | 217 | 0.0 | 0.0 | 0.00 | 0.01 | 0.01 | 82 | 1006.9 |
| 20260506001518 | 65 | 217 | 0.0 | 0.0 | 0.00 | 0.01 | 0.01 | 81 | 1006.6 |
| 20260506001016 | 66 | 217 | 0.0 | 0.0 | 0.00 | 0.01 | 0.01 | 81 | 1006.7 |
| 20260506000513 | 65 | 217 | 0.0 | 0.0 | 0.00 | 0.01 | 0.01 | 80 | 1006.6 |
| 20260506000010 | 66 | 217 | 0.0 | 0.0 | 0.00 | 0.01 | 0.01 | 80 | 1006.6 |
| 20260505235508 | 66 | 217 | 0.0 | 0.0 | 0.00 | 0.01 | 0.01 | 80 | 1006.6 |
| 20260505235004 | 66 | 217 | 0.0 | 0.0 | 0.00 | 0.01 | 0.01 | 79 | 1006.4 |
| 20260505234502 | 66 | 196 | 0.9 | 0.9 | 0.00 | 0.01 | 0.01 | 79 | 1006.4 |
| 20260505233958 | 66 | 206 | 0.0 | 0.0 | 0.00 | 0.01 | 0.01 | 78 | 1006.3 |
| 20260505233456 | 66 | 206 | 0.0 | 0.0 | 0.00 | 0.01 | 0.01 | 78 | 1006.4 |
| 20260505232953 | 66 | 206 | 0.0 | 0.0 | 0.00 | 0.01 | 0.01 | 77 | 1006.1 |
| 20260505232451 | 66 | 206 | 0.0 | 0.0 | 0.00 | 0.01 | 0.01 | 76 | 1006.1 |
| 20260505231948 | 66 | 206 | 0.0 | 0.0 | 0.00 | 0.01 | 0.01 | 76 | 1005.9 |
| 20260505231445 | 67 | 206 | 0.0 | 0.0 | 0.00 | 0.01 | 0.01 | 75 | 1005.8 |
| 20260505230943 | 67 | 205 | 0.0 | 0.9 | 0.00 | 0.01 | 0.01 | 75 | 1006.0 |
| 20260505230441 | 67 | 207 | 0.0 | 0.0 | 0.00 | 0.01 | 0.01 | 74 | 1006.1 |
| 20260505225937 | 67 | 207 | 0.0 | 0.0 | 0.00 | 0.01 | 0.01 | 73 | 1006.2 |
| 20260505225434 | 67 | 206 | 0.0 | 0.0 | 0.00 | 0.01 | 0.01 | 72 | 1006.3 |
| 20260505224930 | 67 | 209 | 0.9 | 0.9 | 0.00 | 0.01 | 0.01 | 72 | 1006.2 |
| 20260505224427 | 67 | 222 | 0.0 | 0.0 | 0.00 | 0.01 | 0.01 | 72 | 1006.2 |
| 20260505223924 | 67 | 221 | 0.0 | 0.0 | 0.00 | 0.01 | 0.01 | 72 | 1006.1 |
| 20260505223421 | 67 | 223 | 0.0 | 0.9 | 0.00 | 0.01 | 0.01 | 72 | 1005.9 |
| 20260505222918 | 67 | 224 | 1.7 | 1.7 | 0.00 | 0.01 | 0.01 | 73 | 1006.0 |
| 20260505222414 | 66 | 242 | 0.9 | 0.9 | 0.00 | 0.01 | 0.01 | 74 | 1006.2 |
| 20260505221910 | 66 | 223 | 0.0 | 0.0 | 0.00 | 0.01 | 0.01 | 76 | 1006.3 |
| 20260505221408 | 66 | 251 | 0.9 | 0.9 | 0.00 | 0.01 | 0.01 | 76 | 1006.4 |
| 20260505220904 | 66 | 222 | 0.0 | 0.0 | 0.00 | 0.01 | 0.01 | 77 | 1006.3 |
| 20260505220401 | 66 | 34 | 0.9 | 1.7 | 0.05 | 0.01 | 0.01 | 75 | 1006.5 |
| 20260505215859 | 67 | 355 | 2.6 | 4.3 | 0.05 | 0.01 | 0.01 | 74 | 1006.6 |
| 20260505215357 | 68 | 214 | 0.9 | 0.9 | 0.00 | 0.00 | 0.00 | 72 | 1006.3 |
| 20260505214855 | 69 | 221 | 0.9 | 0.9 | 0.00 | 0.00 | 0.00 | 68 | 1006.5 |
| 20260505214352 | 70 | 336 | 3.5 | 5.2 | 0.00 | 0.00 | 0.00 | 63 | 1006.2 |
| 20260505213849 | 71 | 212 | 0.9 | 1.7 | 0.00 | 0.00 | 0.00 | 59 | 1006.0 |
| 20260505213347 | 72 | 231 | 0.9 | 0.9 | 0.00 | 0.00 | 0.00 | 56 | 1005.8 |
| 20260505212843 | 72 | 322 | 4.3 | 5.2 | 0.00 | 0.00 | 0.00 | 54 | 1005.5 |
| 20260505212340 | 74 | 2 | 2.6 | 2.6 | 0.00 | 0.00 | 0.00 | 53 | 1004.9 |
| 20260505211836 | 77 | 203 | 2.6 | 6.1 | 0.00 | 0.00 | 0.00 | 48 | 1004.8 |
| 20260505211334 | 82 | 249 | 3.5 | 5.2 | 0.00 | 0.00 | 0.00 | 25 | 1004.4 |
| 20260505210830 | 82 | 231 | 0.0 | 0.9 | 0.00 | 0.00 | 0.00 | 24 | 1003.8 |
| 20260505210327 | 82 | 212 | 1.7 | 2.6 | 0.00 | 0.00 | 0.00 | 23 | 1003.8 |
| 20260505205824 | 82 | 265 | 0.9 | 1.7 | 0.00 | 0.00 | 0.00 | 24 | 1003.5 |
| 20260505205322 | 82 | 215 | 2.6 | 4.3 | 0.00 | 0.00 | 0.00 | 23 | 1003.5 |
| 20260505204818 | 83 | 211 | 0.9 | 1.7 | 0.00 | 0.00 | 0.00 | 24 | 1003.4 |
| 20260505204317 | 83 | 220 | 0.9 | 0.9 | 0.00 | 0.00 | 0.00 | 24 | 1003.5 |
| 20260505203814 | 83 | 239 | 0.9 | 0.9 | 0.00 | 0.00 | 0.00 | 24 | 1003.4 |
| 20260505203310 | 83 | 189 | 1.7 | 1.7 | 0.00 | 0.00 | 0.00 | 24 | 1003.2 |
| 20260505202806 | 83 | 200 | 0.9 | 1.7 | 0.00 | 0.00 | 0.00 | 25 | 1003.2 |